Weather History for KGFK - March, 2014

Change the Weather History Date:

Wednesday, March 19, 2014

  Actual Average Record
Temperature  
Mean Temperature 32 °F 27 °F  
Max Temperature 43 °F 36 °F 74 °F (2012)
Min Temperature 20 °F 18 °F -9 °F (1955)
Degree Days  
Heating Degree Days 33 38  
Month to date heating degree days 934 820  
Since 1 July heating degree days 8829 7970  
Cooling Degree Days 0 0  
Month to date cooling degree days 0 0  
Year to date cooling degree days 0 0  
Moisture  
Dew Point 24 °F    
Average Humidity 71    
Maximum Humidity 92    
Minimum Humidity 49    
Precipitation  
Precipitation T in 0.04 in 0.57 in (1955)
Month to date precipitation 0.14 0.58  
Year to date precipitation 1.21 1.65  
Snow  
Snow T in 0.20 in - ()
Month to date snowfall 1.1 5.2  
Since 1 July snowfall 46.8 42.4  
Snow Depth 2.00 in    
Sea Level Pressure  
Sea Level Pressure 29.93 in    
Wind  
Wind Speed 5 mph (West)    
Max Wind Speed 20 mph    
Max Gust Speed 24 mph    
Visibility 10 miles    
Events Snow    
T = Trace of Precipitation, MM = Missing Value Source: NWS Daily Summary

Daily Weather History Graph

Daily Weather History Graph

Search for Another Location

Airport or City:

Trip Planner

Search our weather history database for the weather conditions in past years. The results will help you decide how hot, cold, wet, or windy it might be!

Date:

Astronomy

Mar. 19, 2014 Rise Set
Actual Time 7:33 AM CDT 7:40 PM CDT
Civil Twilight 7:02 AM CDT 8:11 PM CDT
Nautical Twilight 6:26 AM CDT 8:47 PM CDT
Astronomical Twilight 5:49 AM CDT 9:25 PM CDT
Moon 11:16 PM CDT (3/19) 8:46 AM CDT (3/19)
Length of Visible Light 13h 08m
Length of Day
12h 06m
Waning Gibbous, 91% of the Moon is Illuminated
Mar 19
Waning Gibbous
Mar 23
Last Quarter
Mar 30
New
Apr 7
First Quarter
Apr 15
Full

Hourly Weather History & Observations

Time (CDT) Temp. Windchill Dew Point Humidity Pressure Visibility Wind Dir Wind Speed Gust Speed Precip Events Conditions
1:53 AM 27.0 °F 18.0 °F 21.0 °F 78% 29.96 in 10.0 mi North 9.2 mph - N/A   Overcast
3:53 AM 26.1 °F 16.8 °F 21.0 °F 81% 29.95 in 10.0 mi North 9.2 mph - N/A   Overcast
4:53 AM 19.9 °F 13.4 °F 17.1 °F 89% 29.96 in 10.0 mi NNW 4.6 mph - N/A   Clear
5:53 AM 21.9 °F - 19.0 °F 89% 29.96 in 10.0 mi Calm Calm - N/A   Overcast
6:33 AM 23.0 °F 18.4 °F 19.4 °F 86% 29.91 in 10.0 mi WSW 3.5 mph - N/A   Overcast
6:53 AM 24.1 °F 19.7 °F 21.0 °F 88% 29.96 in 10.0 mi WSW 3.5 mph - N/A   Overcast
7:53 AM 25.0 °F - 21.9 °F 88% 29.96 in 10.0 mi Calm Calm - N/A   Overcast
8:35 AM 26.6 °F - 21.2 °F 80% 29.91 in 10.0 mi Calm Calm - N/A   Overcast
8:53 AM 26.1 °F - 21.9 °F 84% 29.96 in 10.0 mi Calm Calm - N/A   Overcast
9:21 AM 26.6 °F - 23.0 °F 86% 29.91 in 10.0 mi Calm Calm - N/A   Mostly Cloudy
9:53 AM 28.0 °F - 23.0 °F 81% 29.95 in 10.0 mi Calm Calm - N/A   Overcast
10:12 AM 28.4 °F - 23.0 °F 80% 29.91 in 10.0 mi Calm Calm - N/A   Overcast
10:39 AM 28.4 °F - 21.2 °F 74% 29.91 in 10.0 mi Calm Calm - N/A   Overcast
10:53 AM 30.0 °F 26.5 °F 23.0 °F 75% 29.96 in 10.0 mi SSW 3.5 mph - N/A   Overcast
11:53 AM 32.0 °F 28.7 °F 24.1 °F 73% 29.95 in 10.0 mi South 3.5 mph - N/A   Mostly Cloudy
12:53 PM 34.0 °F 29.8 °F 25.0 °F 70% 29.94 in 10.0 mi SW 4.6 mph - N/A   Scattered Clouds
1:53 PM 39.0 °F 34.0 °F 24.1 °F 55% 29.92 in 10.0 mi Variable 6.9 mph - N/A   Mostly Cloudy
2:53 PM 37.9 °F 35.5 °F 24.1 °F 57% 29.91 in 10.0 mi NNW 3.5 mph - N/A   Mostly Cloudy
3:53 PM 42.1 °F 36.6 °F 25.0 °F 51% 29.90 in 10.0 mi NW 9.2 mph - N/A   Mostly Cloudy
4:53 PM 42.1 °F 37.7 °F 25.0 °F 51% 29.88 in 10.0 mi NW 6.9 mph - N/A   Scattered Clouds
5:53 PM 41.0 °F 37.1 °F 27.0 °F 57% 29.89 in 10.0 mi West 5.8 mph - N/A   Mostly Cloudy
6:53 PM 36.0 °F 26.3 °F 28.9 °F 76% 29.91 in 10.0 mi WNW 16.1 mph 19.6 mph N/A   Mostly Cloudy
7:53 PM 33.1 °F 30.0 °F 30.9 °F 92% 29.91 in 9.0 mi West 3.5 mph - 0.00 in Snow Light Snow
8:13 PM 32.0 °F 27.5 °F 30.2 °F 93% 29.87 in 10.0 mi West 4.6 mph - 0.00 in   Mostly Cloudy
8:53 PM 30.9 °F 26.2 °F 28.9 °F 92% 29.91 in 10.0 mi West 4.6 mph - 0.00 in   Scattered Clouds
9:53 PM 30.0 °F 25.2 °F 27.0 °F 88% 29.92 in 10.0 mi West 4.6 mph - N/A   Clear
10:53 PM 28.0 °F 21.7 °F 26.1 °F 92% 29.93 in 10.0 mi West 5.8 mph - N/A   Clear